Showing default

OPTISAT, 68418

Orbit data source: Space-Track

OPTISAT, 68418 is a Greek payload satellite in SSO that was launched on Mon, 30 Mar 2026 UTC via an FALCON 9 launch vehicle from the Air Force Western Test Range (AFWTR). Payload-class satellites include a variety of spacecraft equipped with specific instruments for various scientific and technological missions. These include communications satellites like Starlink; space stations such as the ISS; scientific satellites like the Hubble; Earth observation satellites from companies like Planet Labs, Umbra, and HawkEye 360; GPS; miniature CubeSats for education and research; and military/defense satellites.

Loading next visibility...
Identifier
68418, 2026-067C
Orbit
SSO
Country
Flag of GRGR / GREC
Related business
Manufacturer
PLANH
Mission
Operational Commercial Technology
Bus & Motor
CUBESAT 6U, Unknown motor
Mass
~10 kg wet, ~10 kg dry
Launch date (UTC)
2026-03-30 (4 months ago)
Launch vehicle
FALCON 9
Launch site
Air Force Western Test Range (AFWTR)
Object type
Payload
Rocket body
Debris
Shape & HBR
Box, 0.2 m
Radar Cross Section
0.035 m², Medium (>0.1 m² and < 1m²)

Expand to show TLE details & history
Last TLE update: 12 hours ago

TLE from 12 hours ago
0 OPTISAT
1 68418U 26067C   26219.87983439  .00002438  00000-0  11850-3 0  9994
2 68418  97.4614 177.8246 0004326 102.9162 257.2556 15.19371516 19798
Epoch: 2026-08-07T21:06Z
TLE epoch observation values (Epoch: 2026-08-07T21:06:57.691Z)
Latitude
-0.00001°
Longitude
-95.31497°
Altitude
511.485 km
Speed
7.608 km/s
True Right ascension
11h 51m 17s
True Declination
0° 00' 00"
Sunlit
Object was in daylight at epoch
Visualization orbit readout
Latitude
Unknown
Longitude
Unknown
Altitude
Unknown
Speed
Unknown
Apparent Right ascension
Unknown
Apparent Declination
Unknown
Sunlit
N/A
Visualization observer readout
Local Sidereal Time
23:24:13
Azimuth
Unknown
Elevation
Unknown
Doppler factor
Unknown
Orbital elements
Apogee altitude
507.685 km
Perigee altitude
501.73 km
Semi-major axis
6,882.845 km
Eccentricity
0.00043
Inclination
97.4614°
RAAN
177.8246°
Arg. of periapsis
102.9162°
True anomaly
257.20725°
Mean anomaly
257.2556°
Eccentric anomaly
257.23143°
Mean motion
3.80094 °/min
Orbital period
94.71 mins
BSTAR
0.0001185
Loading maneuver chart data...
Computing Atmospheric mass density...
Loading historical data...
Loading historical data...
Loading historical data...
Loading historical data...
Loading historical data...
Loading historical data...
Loading historical data...

Documentation

Showing up to 5 results
|